Es ist keine erh├Âhte Aufmerksamkeit aufgrund des Wetters notwendig.    Es gibt keine Warnungen.
Webcam Vorhersage DWD Regenradar Wetterlage NRW Blitze Wind GFS-Modell
webcam


Kleve -D├╝ffelward more information Kleve -D├╝ffelward


Goch more information Goch


Thunder radar more information blitzortung!


Weitere Templates dieser Seite und andere Webseiten:

Meteotemplate

Awekas - Template

weather34 - Template

Wetter aus Willich

Hubert Reyers' Wetter


te
World Weather Websites
 

METAR-Meldungen aus der Umgebung

   
EHDL - Nijmegen
Aktualisierung: 18-01-2022 17:55
Nebel, Bew├Âlkt  
Nebel, Bew├Âlkt  
   Wind: WSW 3.7 km/h
Wind: WSW 3.7 km/h
Temperatur: 5°C
Taupunkt: 4°C
Luftfeuchte: 93%
Luftdruck: 1036 hPa
Bew├Âlkt: Bew├Âlkt
Sichtbarkeit: 4 km
Bew├Âlkung: Bew├Âlkt 700 ft
EHDL 181655Z AUTO 24002KT 3800 BR OVC007 05/04 Q1036 GRN
EHDL - Arnhem
Aktualisierung: 18-01-2022 17:55
Nebel, Bew├Âlkt  
Nebel, Bew├Âlkt  
   Wind: WSW 3.7 km/h
Wind: WSW 3.7 km/h
Temperatur: 5°C
Taupunkt: 4°C
Luftfeuchte: 93%
Luftdruck: 1036 hPa
Bew├Âlkt: Bew├Âlkt
Sichtbarkeit: 4 km
Bew├Âlkung: Bew├Âlkt 700 ft
EHDL 181655Z AUTO 24002KT 3800 BR OVC007 05/04 Q1036 GRN
EHAM - Amsterdam
Aktualisierung: 18-01-2022 17:55
Patches of, Nebel, Nebel, Stark bew├Âlkt  
Patches of, Nebel, Nebel, Stark bew├Âlkt  
   Wind: SW 11.1 km/h
Wind: SW 11.1 km/h
Temperatur: 5°C
Gef├╝hlt: 2°C
Taupunkt: 5°C
Luftfeuchte: 100%
Luftdruck: 1036 hPa
Bew├Âlkt: Stark bew├Âlkt
Sichtbarkeit: 3 km
Bew├Âlkung: Teilweise bew├Âlkt 100 ft,
Teilweise bew├Âlkt 200 ft,
Stark bew├Âlkt 300 ft
EHAM 181655Z 22006KT 200V260 3000 1100NW R18C/1600D R27/P2000N R18R/1600U R06/P2000N BCFG BR SCT001 SCT002 BKN003 05/05 Q1036 NOSIG
EHDL - Ede
Aktualisierung: 18-01-2022 17:55
Nebel, Bew├Âlkt  
Nebel, Bew├Âlkt  
   Wind: WSW 3.7 km/h
Wind: WSW 3.7 km/h
Temperatur: 5°C
Taupunkt: 4°C
Luftfeuchte: 93%
Luftdruck: 1036 hPa
Bew├Âlkt: Bew├Âlkt
Sichtbarkeit: 4 km
Bew├Âlkung: Bew├Âlkt 700 ft
EHDL 181655Z AUTO 24002KT 3800 BR OVC007 05/04 Q1036 GRN
EHDL - Emmen
Aktualisierung: 18-01-2022 17:55
Nebel, Bew├Âlkt  
Nebel, Bew├Âlkt  
   Wind: WSW 3.7 km/h
Wind: WSW 3.7 km/h
Temperatur: 5°C
Taupunkt: 4°C
Luftfeuchte: 93%
Luftdruck: 1036 hPa
Bew├Âlkt: Bew├Âlkt
Sichtbarkeit: 4 km
Bew├Âlkung: Bew├Âlkt 700 ft
EHDL 181655Z AUTO 24002KT 3800 BR OVC007 05/04 Q1036 GRN
EHAM - Den Haag
Aktualisierung: 18-01-2022 17:55
Patches of, Nebel, Nebel, Stark bew├Âlkt  
Patches of, Nebel, Nebel, Stark bew├Âlkt  
   Wind: SW 11.1 km/h
Wind: SW 11.1 km/h
Temperatur: 5°C
Gef├╝hlt: 2°C
Taupunkt: 5°C
Luftfeuchte: 100%
Luftdruck: 1036 hPa
Bew├Âlkt: Stark bew├Âlkt
Sichtbarkeit: 3 km
Bew├Âlkung: Teilweise bew├Âlkt 100 ft,
Teilweise bew├Âlkt 200 ft,
Stark bew├Âlkt 300 ft
EHAM 181655Z 22006KT 200V260 3000 1100NW R18C/1600D R27/P2000N R18R/1600U R06/P2000N BCFG BR SCT001 SCT002 BKN003 05/05 Q1036 NOSIG
EHAM - Apeldoorn
Aktualisierung: 18-01-2022 17:55
Patches of, Nebel, Nebel, Stark bew├Âlkt  
Patches of, Nebel, Nebel, Stark bew├Âlkt  
   Wind: SW 11.1 km/h
Wind: SW 11.1 km/h
Temperatur: 5°C
Gef├╝hlt: 2°C
Taupunkt: 5°C
Luftfeuchte: 100%
Luftdruck: 1036 hPa
Bew├Âlkt: Stark bew├Âlkt
Sichtbarkeit: 3 km
Bew├Âlkung: Teilweise bew├Âlkt 100 ft,
Teilweise bew├Âlkt 200 ft,
Stark bew├Âlkt 300 ft
EHAM 181655Z 22006KT 200V260 3000 1100NW R18C/1600D R27/P2000N R18R/1600U R06/P2000N BCFG BR SCT001 SCT002 BKN003 05/05 Q1036 NOSIG
EHAM - Leeuwarden
Aktualisierung: 18-01-2022 17:55
Patches of, Nebel, Nebel, Stark bew├Âlkt  
Patches of, Nebel, Nebel, Stark bew├Âlkt  
   Wind: SW 11.1 km/h
Wind: SW 11.1 km/h
Temperatur: 5°C
Gef├╝hlt: 2°C
Taupunkt: 5°C
Luftfeuchte: 100%
Luftdruck: 1036 hPa
Bew├Âlkt: Stark bew├Âlkt
Sichtbarkeit: 3 km
Bew├Âlkung: Teilweise bew├Âlkt 100 ft,
Teilweise bew├Âlkt 200 ft,
Stark bew├Âlkt 300 ft
EHAM 181655Z 22006KT 200V260 3000 1100NW R18C/1600D R27/P2000N R18R/1600U R06/P2000N BCFG BR SCT001 SCT002 BKN003 05/05 Q1036 NOSIG
TNCC - Willemstad
Aktualisierung: 18-01-2022 18:00
Nearby Showers, Teilweise bew├Âlkt  
Nearby Showers, Teilweise bew├Âlkt  
   Wind: Osten 14.8 km/h
Wind: Osten 14.8 km/h
Temperatur: 28°C
Hitzeindex: 32°C
Taupunkt: 24°C
Luftfeuchte: 79%
Luftdruck: 1015 hPa
Bew├Âlkt: Teilweise bew├Âlkt
Sichtbarkeit: More than 10 km
Bew├Âlkung: leicht bew├Âlkt 1800 ft,
Teilweise bew├Âlkt 2200 ft
TNCC 181700Z 08008KT 9999 VCSH FEW018TCU SCT022 28/24 Q1015 NOSIG=
EHEH - Eindhoven
Aktualisierung: 18-01-2022 17:55
Bew├Âlkt  
Bew├Âlkt  
   Wind: SSO 5.6 km/h
Wind: SSO 5.6 km/h
Temperatur: 6°C
Gef├╝hlt: 5°C
Taupunkt: 4°C
Luftfeuchte: 87%
Luftdruck: 1036 hPa
Bew├Âlkt: Bew├Âlkt
Sichtbarkeit: More than 10 km
Bew├Âlkung: Bew├Âlkt 1900 ft
EHEH 181655Z AUTO 16003KT 120V220 9999 OVC019 06/04 Q1036 WHT NOSIG
EHAM - Middelburg
Aktualisierung: 18-01-2022 17:55
Patches of, Nebel, Nebel, Stark bew├Âlkt  
Patches of, Nebel, Nebel, Stark bew├Âlkt  
   Wind: SW 11.1 km/h
Wind: SW 11.1 km/h
Temperatur: 5°C
Gef├╝hlt: 2°C
Taupunkt: 5°C
Luftfeuchte: 100%
Luftdruck: 1036 hPa
Bew├Âlkt: Stark bew├Âlkt
Sichtbarkeit: 3 km
Bew├Âlkung: Teilweise bew├Âlkt 100 ft,
Teilweise bew├Âlkt 200 ft,
Stark bew├Âlkt 300 ft
EHAM 181655Z 22006KT 200V260 3000 1100NW R18C/1600D R27/P2000N R18R/1600U R06/P2000N BCFG BR SCT001 SCT002 BKN003 05/05 Q1036 NOSIG
EHAM - Delfzijl
Aktualisierung: 18-01-2022 17:55
Patches of, Nebel, Nebel, Stark bew├Âlkt  
Patches of, Nebel, Nebel, Stark bew├Âlkt  
   Wind: SW 11.1 km/h
Wind: SW 11.1 km/h
Temperatur: 5°C
Gef├╝hlt: 2°C
Taupunkt: 5°C
Luftfeuchte: 100%
Luftdruck: 1036 hPa
Bew├Âlkt: Stark bew├Âlkt
Sichtbarkeit: 3 km
Bew├Âlkung: Teilweise bew├Âlkt 100 ft,
Teilweise bew├Âlkt 200 ft,
Stark bew├Âlkt 300 ft
EHAM 181655Z 22006KT 200V260 3000 1100NW R18C/1600D R27/P2000N R18R/1600U R06/P2000N BCFG BR SCT001 SCT002 BKN003 05/05 Q1036 NOSIG

Script entwickelt von  Saratoga-weather.org Angepasst f├╝r das Template von  Weerstation Leuven

Sie finden Wetter-Infos dieser Station auch auf:

UK Metoffice

European Weather Network

WeatherCloud

Weather Underground

AWEKAS

Neuwetter

Wettersektor

Von uns verwendete Ausr├╝stung:

Wetterstation
Davis VP2

Wetterprogramm
Meteobridge

WetterComputer
Computer

Anbieter
My provider

Davis VP2

Meteobridge

Computer

My provider